Weather in Bila Krynytsia

Ukraine / Zhytomyr Region     50°38′11″N   29°27′49″E
temp.,
°C
wind,
m/s
gust,
m/s
humid.,
%
clouds,
%
prec.,
mm/h
press.,
hPa
HPBL,
m
18 may, tue
tue1800:00+14sw119667 0.7 100218
03:00+13s229892 4.0 100359
06:00+12s229697 0.5 100239
09:00+16se248594 0.5 1002338
12:00+20se3464100 0.8 10011110
15:00+20ese3568100 3.3 10001118
18:00+18ese2581100 3.8 999247
21:00+15e2289100 5.0 99825
19 may, wed
wed1900:00+13ese2495100 0.3 99884
03:00+11se24975 0.9 99979
06:00+10se2398100 0.0 1000107
09:00+14se238789 0.0 1001563
12:00+16ssw227797 1.9 1002639
15:00+14nw6892100 4.4 1004602
18:00+12nw5992100 0.2 1006611
21:00+11nw4892100 0.3 1006686
20 may, thu
thu2000:00+11wnw4893100 0.0 1007561
03:00+11wnw4894100 0.1 1006644
06:00+10nw51092100 0.1 1007691
09:00+11nw4118781 0.8 1008835
12:00+12wnw4783100 0.1 1009726
15:00+16nw465961 0.1 10091389
18:00+16nnw456268 0.1 10101248
21:00+11ese11842 0.2 101211
21 may, fri
fri2100:00+9s119049 0.0 101313
03:00+8nw1192100 0.0 101410
06:00+8n2389100 0.0 101565
09:00+14n2470100 0.0 1016536
12:00+16nne3357100 0.0 10161422
15:00+18ne335099 0.1 10161599
18:00+17ne2350100 0.0 10161291
21:00+11se128190 0.2 101818
22 may, sat
sat2200:00+9w229039 0.0 101815
03:00+8nne23885 0.0 101847
06:00+8nne25886 0.0 1018111
09:00+15nne236638 0.0 1018468
12:00+18nne34505 0.0 10171574
15:00+20ne23449 0.0 10161707
18:00+19nne2359100 0.0 1015505
21:00+15se227645 0.1 101616